Volver al catálogo

STARLINK-11123

ActivoComunicacionesVLEO
NORAD 59948·PAYLOAD·🇺🇸 United States

Lanzado Jun 5, 2024 desde Cape Canaveral Space Force Station

Loading…

Próximos Pases (próximas 24 horas)

TLE

ActualizadoSource: CelesTrak SupGP

Época: Sep 14, 2026, 20:42 UTC

1 59948C 24107D   26257.86298611  .00214490  00000+0  17648-2 0  2576
2 59948  53.1576  38.9073 0001183  83.6924 328.9495 15.69630061    17

Sigue STARLINK-11123 en tiempo real con AllMySat

Download on the App Store